Simultaneous Nadir Overpasses (SNOs) Predictions

Prediction of SNOs between NOAA-19 and TERRA Satellite Orbit:

Table of predicted SNOs for the next 14.0 days since TLE Epoch: 2/24/2018
Index Date (NOAA-19) Time (NOAA-19) Lat,Lon (NOAA-19) SZA (NOAA-19 ) Date (TERRA) Time (TERRA) Lat,Lon (TERRA) SZA (TERRA ) Distance(km) Time Diff (sec)
1 02/24/2018 17:19:13 76.64, -65.06 86.12 02/24/2018 17:19:34 76.62, -65.15 86.10 3.16 21
2 02/24/2018 18:10:14 -76.60, 102.37 93.94 02/24/2018 18:09:02 -76.59, 102.38 93.95 0.42 72
3 02/26/2018 22:52:54 -76.66, 31.51 94.69 02/26/2018 22:53:20 -76.64, 31.46 94.71 2.72 26
4 02/26/2018 23:43:53 76.63,-161.11 85.27 02/26/2018 23:42:46 76.63,-160.94 85.26 4.21 67
5 03/01/2018 04:26:33 76.68, 128.10 84.49 03/01/2018 04:27:05 76.66, 128.09 84.48 2.07 32
6 03/01/2018 05:17:33 -76.64, -64.48 95.56 03/01/2018 05:16:33 -76.64, -64.35 95.57 3.12 60
7 03/03/2018 10:00:12 -76.67,-135.20 96.36 03/03/2018 10:00:53 -76.66,-135.35 96.37 3.97 41
8 03/03/2018 10:51:12 76.63, 32.20 83.60 03/03/2018 10:50:19 76.64, 32.23 83.60 1.40 53
9 03/05/2018 15:33:52 76.69, -38.63 82.81 03/05/2018 15:34:39 76.70, -38.65 82.83 1.70 47
10 03/05/2018 16:24:51 -76.65, 128.78 97.24 03/05/2018 16:24:08 -76.64, 128.76 97.26 1.61 43
11 03/07/2018 21:07:31 -76.74, 57.84 98.02 03/07/2018 21:08:28 -76.74, 58.01 98.00 4.31 57
12 03/07/2018 21:58:31 76.65,-134.57 81.91 03/07/2018 21:57:55 76.67,-134.59 81.92 1.79 36
13 03/10/2018 02:41:11 76.72, 154.57 81.11 03/10/2018 02:42:17 76.71, 154.45 81.11 3.29 66




NCC Satellite Simultaneous Nadir Overpasses (SNOs) Prediction Service
